| time (UTC) | temp F | wind direction | speed knots | gust knots | rain 1hr in | rain 24hr in | rain mn in | humidity % | barometer mb |
| 20260502170115 | 52 | 245 | 0.0 | 0.0 | 0.00 | 0.00 | 0.00 | 73 | 1013.0 |
| 20260502164051 | 53 | 116 | 0.0 | 0.0 | 0.00 | 0.00 | 0.00 | 73 | 1013.0 |
| 20260502163545 | 52 | 38 | 0.0 | 0.0 | 0.00 | 0.00 | 0.00 | 73 | 1013.0 |
| 20260502163039 | 53 | 102 | 0.0 | 0.0 | 0.00 | 0.00 | 0.00 | 73 | 1012.9 |
| 20260502162533 | 52 | 111 | 0.0 | 0.0 | 0.00 | 0.00 | 0.00 | 72 | 1013.0 |
| 20260502162027 | 52 | 107 | 0.0 | 0.0 | 0.00 | 0.00 | 0.00 | 72 | 1013.0 |
| 20260502161521 | 52 | 92 | 0.0 | 0.0 | 0.00 | 0.00 | 0.00 | 72 | 1013.0 |
| 20260502161015 | 52 | 110 | 0.0 | 0.0 | 0.00 | 0.00 | 0.00 | 72 | 1012.9 |
| 20260502160509 | 52 | 119 | 0.0 | 0.0 | 0.00 | 0.00 | 0.00 | 72 | 1012.8 |
| 20260502151915 | 51 | 102 | 0.0 | 0.0 | 0.00 | 0.00 | 0.00 | 72 | 1012.8 |
| 20260502151409 | 50 | 225 | 0.0 | 0.0 | 0.00 | 0.00 | 0.00 | 72 | 1012.8 |
| 20260502150903 | 51 | 142 | 0.0 | 0.0 | 0.00 | 0.00 | 0.00 | 72 | 1012.8 |
| 20260502150357 | 51 | 98 | 0.0 | 0.0 | 0.00 | 0.00 | 0.00 | 72 | 1012.8 |
| 20260502130639 | 48 | 288 | 2.6 | 0.0 | 0.00 | 0.00 | 0.00 | 72 | 1012.0 |
| 20260502130133 | 48 | 293 | 1.7 | 0.0 | 0.00 | 0.00 | 0.00 | 72 | 1011.9 |
| 20260502123603 | 48 | 276 | 4.3 | 9.6 | 0.00 | 0.00 | 0.00 | 72 | 1012.1 |
| 20260502123057 | 48 | 262 | 1.7 | 0.0 | 0.00 | 0.00 | 0.00 | 72 | 1012.0 |
| 20260502122551 | 48 | 274 | 2.6 | 0.0 | 0.00 | 0.00 | 0.00 | 72 | 1012.0 |
| 20260502122045 | 48 | 270 | 1.7 | 0.0 | 0.00 | 0.00 | 0.00 | 72 | 1012.0 |
| 20260502121539 | 48 | 201 | 0.0 | 0.0 | 0.00 | 0.00 | 0.00 | 72 | 1012.0 |
| 20260502121033 | 48 | 274 | 3.5 | 0.0 | 0.00 | 0.00 | 0.00 | 72 | 1012.0 |
| 20260502120527 | 48 | 282 | 5.2 | 0.0 | 0.00 | 0.00 | 0.00 | 72 | 1012.0 |
| 20260502115515 | 48 | 281 | 3.5 | 0.0 | 0.00 | 0.00 | 0.00 | 72 | 1011.9 |
| 20260502115009 | 48 | 285 | 3.5 | 0.0 | 0.00 | 0.00 | 0.00 | 72 | 1011.8 |
| 20260502114503 | 48 | 276 | 2.6 | 0.0 | 0.00 | 0.00 | 0.00 | 72 | 1011.8 |
| 20260502113957 | 48 | 286 | 3.5 | 0.0 | 0.00 | 0.00 | 0.00 | 72 | 1011.9 |
| 20260502113451 | 48 | 285 | 3.5 | 0.0 | 0.00 | 0.00 | 0.00 | 72 | 1011.8 |
| 20260502112945 | 48 | 273 | 1.7 | 10.4 | 0.00 | 0.00 | 0.00 | 73 | 1011.8 |
| 20260502112439 | 48 | 283 | 5.2 | 10.4 | 0.00 | 0.00 | 0.00 | 73 | 1011.9 |
| 20260502111933 | 48 | 270 | 3.5 | 0.0 | 0.00 | 0.00 | 0.00 | 73 | 1011.9 |
| 20260502111427 | 48 | 281 | 3.5 | 9.6 | 0.00 | 0.00 | 0.00 | 73 | 1011.9 |
| 20260502110921 | 48 | 278 | 5.2 | 9.6 | 0.00 | 0.00 | 0.00 | 73 | 1011.8 |
| 20260502110415 | 48 | 278 | 3.5 | 0.0 | 0.00 | 0.00 | 0.00 | 73 | 1011.8 |
| 20260502105909 | 48 | 278 | 3.5 | 9.6 | 0.00 | 0.00 | 0.00 | 73 | 1011.8 |
| 20260502105403 | 48 | 277 | 4.3 | 9.6 | 0.00 | 0.00 | 0.00 | 73 | 1011.8 |
| 20260502104857 | 48 | 291 | 4.3 | 0.0 | 0.00 | 0.00 | 0.00 | 73 | 1011.7 |
| 20260502104351 | 49 | 285 | 2.6 | 0.0 | 0.00 | 0.00 | 0.00 | 73 | 1011.8 |
| 20260502103845 | 49 | 290 | 0.9 | 0.0 | 0.00 | 0.00 | 0.00 | 73 | 1011.8 |
| 20260502103339 | 49 | 291 | 0.9 | 0.0 | 0.00 | 0.00 | 0.00 | 73 | 1011.8 |
| 20260502102833 | 49 | 288 | 3.5 | 0.0 | 0.00 | 0.00 | 0.00 | 73 | 1011.7 |
| 20260502102327 | 49 | 290 | 2.6 | 0.0 | 0.00 | 0.00 | 0.00 | 73 | 1011.7 |
| 20260502101821 | 49 | 276 | 3.5 | 0.0 | 0.00 | 0.00 | 0.00 | 73 | 1011.6 |
| 20260502101315 | 49 | 288 | 3.5 | 0.0 | 0.00 | 0.00 | 0.00 | 73 | 1011.6 |
| 20260502100809 | 49 | 297 | 1.7 | 0.0 | 0.00 | 0.00 | 0.00 | 73 | 1011.6 |
| 20260502100303 | 49 | 297 | 1.7 | 0.0 | 0.00 | 0.00 | 0.00 | 73 | 1011.6 |
| 20260502091203 | 49 | 290 | 2.6 | 0.0 | 0.00 | 0.00 | 0.00 | 73 | 1011.6 |
| 20260502090657 | 48 | 293 | 4.3 | 0.0 | 0.00 | 0.00 | 0.00 | 73 | 1011.7 |
| 20260502090151 | 48 | 300 | 1.7 | 0.0 | 0.00 | 0.00 | 0.00 | 73 | 1011.7 |
| 20260502071445 | 49 | 315 | 1.7 | 0.0 | 0.00 | 0.00 | 0.00 | 73 | 1012.2 |
| 20260502070939 | 49 | 305 | 1.7 | 0.0 | 0.00 | 0.00 | 0.00 | 73 | 1012.3 |
| 20260502070433 | 49 | 315 | 2.6 | 0.0 | 0.00 | 0.00 | 0.00 | 73 | 1012.3 |
| 20260502065927 | 49 | 313 | 0.9 | 0.0 | 0.00 | 0.00 | 0.00 | 73 | 1012.4 |
| 20260502065421 | 49 | 322 | 2.6 | 0.0 | 0.00 | 0.00 | 0.00 | 73 | 1012.4 |
| 20260502064915 | 49 | 321 | 0.9 | 0.0 | 0.00 | 0.00 | 0.00 | 73 | 1012.4 |
| 20260502064409 | 49 | 323 | 1.7 | 0.0 | 0.00 | 0.00 | 0.00 | 73 | 1012.4 |
| 20260502063903 | 49 | 317 | 3.5 | 0.0 | 0.00 | 0.00 | 0.00 | 73 | 1012.5 |
| 20260502063357 | 49 | 309 | 2.6 | 10.4 | 0.00 | 0.00 | 0.00 | 73 | 1012.5 |
| 20260502062851 | 49 | 290 | 4.3 | 10.4 | 0.00 | 0.00 | 0.00 | 73 | 1012.5 |
| 20260502062345 | 49 | 306 | 2.6 | 0.0 | 0.00 | 0.00 | 0.00 | 73 | 1012.5 |
| 20260502061839 | 49 | 302 | 3.5 | 0.0 | 0.00 | 0.00 | 0.00 | 73 | 1012.6 |
| 20260502061333 | 49 | 296 | 4.3 | 0.0 | 0.00 | 0.00 | 0.00 | 73 | 1012.6 |
| 20260502060827 | 49 | 302 | 5.2 | 0.0 | 0.00 | 0.00 | 0.00 | 73 | 1012.5 |
| 20260502060321 | 49 | 314 | 4.3 | 0.0 | 0.00 | 0.00 | 0.00 | 73 | 1012.6 |
| 20260502055815 | 49 | 306 | 3.5 | 9.6 | 0.00 | 0.00 | 0.00 | 73 | 1012.7 |
| 20260502055309 | 49 | 292 | 5.2 | 11.3 | 0.00 | 0.00 | 0.00 | 73 | 1012.7 |
| 20260502054803 | 49 | 293 | 6.1 | 11.3 | 0.00 | 0.00 | 0.00 | 73 | 1012.7 |
| 20260502054257 | 49 | 298 | 3.5 | 12.2 | 0.00 | 0.00 | 0.00 | 74 | 1012.7 |
| 20260502053751 | 49 | 298 | 5.2 | 12.2 | 0.00 | 0.00 | 0.00 | 74 | 1012.7 |
| 20260502053245 | 49 | 290 | 6.1 | 12.2 | 0.00 | 0.00 | 0.00 | 74 | 1012.7 |
| 20260502052739 | 49 | 291 | 5.2 | 10.4 | 0.00 | 0.00 | 0.00 | 74 | 1012.7 |
| 20260502052233 | 49 | 296 | 7.0 | 10.4 | 0.00 | 0.00 | 0.00 | 74 | 1012.7 |
| 20260502051727 | 49 | 297 | 3.5 | 0.0 | 0.00 | 0.00 | 0.00 | 74 | 1012.7 |
| 20260502051221 | 49 | 298 | 3.5 | 8.7 | 0.00 | 0.00 | 0.00 | 74 | 1012.8 |
| 20260502050715 | 49 | 300 | 3.5 | 0.0 | 0.00 | 0.00 | 0.00 | 74 | 1012.7 |
| 20260502050209 | 49 | 310 | 1.7 | 0.0 | 0.00 | 0.00 | 0.00 | 74 | 1012.7 |
| 20260502045703 | 49 | 307 | 2.6 | 0.0 | 0.00 | 0.00 | 0.00 | 74 | 1012.8 |
| 20260502045157 | 49 | 302 | 4.3 | 0.0 | 0.00 | 0.00 | 0.00 | 74 | 1012.7 |
| 20260502044651 | 49 | 301 | 3.5 | 0.0 | 0.00 | 0.00 | 0.00 | 74 | 1012.7 |
| 20260502044145 | 49 | 305 | 4.3 | 9.6 | 0.00 | 0.00 | 0.00 | 74 | 1012.8 |
| 20260502043639 | 49 | 305 | 4.3 | 9.6 | 0.00 | 0.00 | 0.00 | 74 | 1012.7 |
| 20260502043133 | 49 | 312 | 3.5 | 0.0 | 0.00 | 0.00 | 0.00 | 74 | 1012.7 |
| 20260502042627 | 49 | 305 | 3.5 | 0.0 | 0.00 | 0.00 | 0.00 | 74 | 1012.7 |
| 20260502042121 | 49 | 309 | 2.6 | 9.6 | 0.00 | 0.00 | 0.00 | 74 | 1012.7 |
| 20260502041615 | 49 | 311 | 3.5 | 9.6 | 0.00 | 0.00 | 0.00 | 74 | 1012.7 |
| 20260502041109 | 49 | 310 | 4.3 | 9.6 | 0.00 | 0.00 | 0.00 | 74 | 1012.7 |
| 20260502040603 | 49 | 310 | 2.6 | 0.0 | 0.00 | 0.00 | 0.00 | 74 | 1012.6 |
| 20260502040057 | 49 | 307 | 2.6 | 10.4 | 0.00 | 0.00 | 0.00 | 74 | 1012.6 |
| 20260502035551 | 49 | 305 | 2.6 | 13.9 | 0.00 | 0.00 | 0.00 | 74 | 1012.6 |
| 20260502035045 | 49 | 305 | 5.2 | 13.9 | 0.00 | 0.00 | 0.00 | 74 | 1012.5 |
| 20260502034539 | 49 | 300 | 6.1 | 13.0 | 0.00 | 0.00 | 0.00 | 74 | 1012.4 |
| 20260502034033 | 49 | 297 | 5.2 | 11.3 | 0.00 | 0.00 | 0.00 | 74 | 1012.4 |
| 20260502033527 | 49 | 291 | 6.1 | 13.0 | 0.00 | 0.00 | 0.00 | 74 | 1012.3 |
| 20260502033021 | 49 | 289 | 5.2 | 13.0 | 0.00 | 0.00 | 0.00 | 74 | 1012.3 |
| 20260502032515 | 49 | 283 | 7.8 | 12.2 | 0.00 | 0.00 | 0.00 | 74 | 1012.2 |
| 20260502032009 | 49 | 284 | 9.6 | 14.8 | 0.00 | 0.00 | 0.00 | 74 | 1012.2 |
| 20260502031503 | 49 | 291 | 8.7 | 12.2 | 0.00 | 0.00 | 0.00 | 74 | 1012.2 |
| 20260502030957 | 49 | 286 | 9.6 | 13.9 | 0.00 | 0.00 | 0.00 | 74 | 1012.1 |
| 20260502030451 | 49 | 284 | 10.4 | 13.9 | 0.00 | 0.00 | 0.00 | 75 | 1012.0 |
| 20260502025945 | 49 | 283 | 6.1 | 14.8 | 0.00 | 0.00 | 0.00 | 75 | 1012.1 |
| 20260502025439 | 49 | 280 | 8.7 | 16.5 | 0.00 | 0.00 | 0.00 | 75 | 1012.0 |
| 20260502024933 | 49 | 279 | 8.7 | 16.5 | 0.00 | 0.00 | 0.00 | 75 | 1012.0 |
| 20260502024427 | 49 | 287 | 11.3 | 14.8 | 0.00 | 0.00 | 0.00 | 75 | 1011.9 |
| 20260502023921 | 49 | 278 | 7.8 | 15.6 | 0.00 | 0.00 | 0.00 | 75 | 1011.9 |
| 20260502023415 | 49 | 279 | 7.8 | 16.5 | 0.00 | 0.00 | 0.00 | 75 | 1011.9 |
| 20260502022909 | 49 | 288 | 10.4 | 16.5 | 0.00 | 0.00 | 0.00 | 75 | 1011.8 |
| 20260502022403 | 49 | 285 | 10.4 | 15.6 | 0.00 | 0.00 | 0.00 | 75 | 1011.8 |
| 20260502021857 | 50 | 285 | 9.6 | 15.6 | 0.00 | 0.00 | 0.00 | 75 | 1011.8 |
| 20260502021351 | 50 | 279 | 7.0 | 17.4 | 0.00 | 0.00 | 0.00 | 75 | 1011.8 |
| 20260502020845 | 50 | 273 | 6.1 | 17.4 | 0.00 | 0.00 | 0.00 | 75 | 1011.8 |
| 20260502020339 | 50 | 277 | 7.8 | 14.8 | 0.00 | 0.00 | 0.00 | 75 | 1011.7 |
| 20260502015833 | 50 | 275 | 6.1 | 14.8 | 0.00 | 0.00 | 0.00 | 75 | 1011.7 |
| 20260502015327 | 50 | 281 | 10.4 | 14.8 | 0.00 | 0.00 | 0.00 | 75 | 1011.7 |
| 20260502014821 | 50 | 266 | 4.3 | 13.0 | 0.00 | 0.00 | 0.00 | 75 | 1011.7 |
| 20260502014315 | 51 | 254 | 2.6 | 12.2 | 0.00 | 0.00 | 0.00 | 75 | 1011.6 |
| 20260502013809 | 51 | 251 | 2.6 | 12.2 | 0.00 | 0.00 | 0.00 | 75 | 1011.7 |
| 20260502013303 | 51 | 230 | 1.7 | 13.0 | 0.00 | 0.00 | 0.00 | 76 | 1011.6 |
| 20260502012757 | 51 | 260 | 4.3 | 13.9 | 0.00 | 0.00 | 0.00 | 76 | 1011.6 |
| 20260502012251 | 51 | 273 | 6.1 | 13.9 | 0.00 | 0.00 | 0.00 | 76 | 1011.6 |
| 20260502011745 | 51 | 269 | 4.3 | 13.9 | 0.00 | 0.00 | 0.00 | 76 | 1011.5 |
| 20260502011239 | 51 | 271 | 5.2 | 13.9 | 0.00 | 0.00 | 0.00 | 76 | 1011.6 |
| 20260502010733 | 52 | 275 | 5.2 | 11.3 | 0.00 | 0.00 | 0.00 | 76 | 1011.5 |
| 20260502010227 | 52 | 220 | 1.7 | 13.9 | 0.00 | 0.00 | 0.00 | 76 | 1011.5 |
| 20260502005721 | 52 | 264 | 5.2 | 13.9 | 0.00 | 0.00 | 0.00 | 76 | 1011.6 |
| 20260502005215 | 52 | 234 | 1.7 | 13.9 | 0.00 | 0.00 | 0.00 | 76 | 1011.5 |
| 20260502004709 | 52 | 253 | 3.5 | 13.9 | 0.00 | 0.00 | 0.00 | 76 | 1011.5 |
| 20260502004203 | 52 | 258 | 4.3 | 11.3 | 0.00 | 0.00 | 0.00 | 76 | 1011.6 |
| 20260502003657 | 53 | 133 | 0.0 | 0.0 | 0.00 | 0.00 | 0.00 | 76 | 1011.7 |
| 20260502003151 | 53 | 150 | 0.9 | 11.3 | 0.00 | 0.00 | 0.00 | 76 | 1011.6 |
| 20260502002645 | 53 | 153 | 0.9 | 11.3 | 0.00 | 0.00 | 0.00 | 76 | 1011.6 |
| 20260502002139 | 54 | 227 | 1.7 | 12.2 | 0.00 | 0.00 | 0.00 | 76 | 1011.6 |
| 20260502001633 | 54 | 250 | 2.6 | 12.2 | 0.00 | 0.00 | 0.00 | 76 | 1011.6 |
| 20260502001127 | 55 | 178 | 0.9 | 0.0 | 0.00 | 0.00 | 0.00 | 76 | 1011.6 |
| 20260502000621 | 55 | 192 | 0.9 | 0.0 | 0.00 | 0.00 | 0.00 | 76 | 1011.6 |
| 20260502000115 | 56 | 177 | 0.9 | 11.3 | 0.00 | 0.00 | 0.00 | 76 | 1011.6 |
| 20260501235609 | 56 | 246 | 2.6 | 11.3 | 0.00 | 0.00 | 0.00 | 76 | 1011.6 |
| 20260501235103 | 56 | 223 | 1.7 | 10.4 | 0.00 | 0.00 | 0.00 | 76 | 1011.7 |
| 20260501234557 | 56 | 218 | 1.7 | 10.4 | 0.00 | 0.00 | 0.00 | 77 | 1011.6 |
| 20260501234051 | 56 | 221 | 0.9 | 0.0 | 0.00 | 0.00 | 0.00 | 76 | 1011.7 |
| 20260501233545 | 57 | 198 | 1.7 | 0.0 | 0.00 | 0.00 | 0.00 | 76 | 1011.6 |
| 20260501233039 | 57 | 142 | 0.9 | 0.0 | 0.00 | 0.00 | 0.00 | 76 | 1011.6 |
| 20260501232533 | 57 | 235 | 1.7 | 0.0 | 0.00 | 0.00 | 0.00 | 76 | 1011.8 |
| 20260501232027 | 58 | 130 | 0.9 | 0.0 | 0.00 | 0.00 | 0.00 | 76 | 1011.8 |
| 20260501231521 | 58 | 129 | 0.9 | 0.0 | 0.00 | 0.00 | 0.00 | 76 | 1011.8 |
| 20260501231015 | 58 | 169 | 0.9 | 0.0 | 0.00 | 0.00 | 0.00 | 76 | 1011.8 |
| 20260501230509 | 58 | 129 | 0.9 | 0.0 | 0.00 | 0.00 | 0.00 | 76 | 1011.8 |
| 20260501230003 | 57 | 152 | 0.9 | 11.3 | 0.00 | 0.00 | 0.00 | 76 | 1012.0 |
| 20260501225457 | 57 | 244 | 1.7 | 13.0 | 0.00 | 0.00 | 0.00 | 76 | 1012.0 |
| 20260501224951 | 58 | 252 | 2.6 | 13.0 | 0.00 | 0.00 | 0.00 | 76 | 1012.1 |
| 20260501224445 | 57 | 120 | 0.9 | 13.0 | 0.00 | 0.00 | 0.00 | 76 | 1012.1 |
| 20260501223939 | 57 | 203 | 1.7 | 11.3 | 0.00 | 0.00 | 0.00 | 76 | 1012.1 |
| 20260501223433 | 57 | 249 | 2.6 | 13.0 | 0.00 | 0.00 | 0.00 | 76 | 1012.2 |
| 20260501222927 | 57 | 255 | 4.3 | 13.0 | 0.00 | 0.00 | 0.00 | 76 | 1012.2 |
| 20260501222421 | 58 | 234 | 1.7 | 11.3 | 0.00 | 0.00 | 0.00 | 76 | 1012.3 |
| 20260501221915 | 58 | 229 | 2.6 | 12.2 | 0.00 | 0.00 | 0.00 | 76 | 1012.4 |
| 20260501221409 | 59 | 214 | 1.7 | 12.2 | 0.00 | 0.00 | 0.00 | 76 | 1012.4 |
| 20260501220903 | 59 | 243 | 1.7 | 13.0 | 0.00 | 0.00 | 0.00 | 76 | 1012.4 |
| 20260501220357 | 60 | 268 | 2.6 | 12.2 | 0.00 | 0.00 | 0.00 | 76 | 1012.4 |
| 20260501215851 | 60 | 256 | 2.6 | 12.2 | 0.00 | 0.00 | 0.00 | 76 | 1012.5 |
| 20260501215345 | 60 | 259 | 3.5 | 13.0 | 0.00 | 0.00 | 0.00 | 76 | 1012.5 |
| 20260501214839 | 60 | 258 | 4.3 | 13.0 | 0.00 | 0.00 | 0.00 | 76 | 1012.5 |
| 20260501214333 | 60 | 158 | 0.9 | 14.8 | 0.00 | 0.00 | 0.00 | 76 | 1012.6 |
| 20260501213827 | 60 | 246 | 2.6 | 14.8 | 0.00 | 0.00 | 0.00 | 76 | 1012.5 |
| 20260501213321 | 60 | 196 | 1.7 | 14.8 | 0.00 | 0.00 | 0.00 | 76 | 1012.6 |
| 20260501212815 | 60 | 240 | 2.6 | 14.8 | 0.00 | 0.00 | 0.00 | 76 | 1012.6 |
| 20260501212309 | 60 | 254 | 3.5 | 14.8 | 0.00 | 0.00 | 0.00 | 75 | 1012.6 |
| 20260501211803 | 61 | 250 | 3.5 | 13.9 | 0.00 | 0.00 | 0.00 | 75 | 1012.6 |
| 20260501211257 | 62 | 258 | 3.5 | 13.0 | 0.00 | 0.00 | 0.00 | 75 | 1012.6 |
| 20260501210751 | 62 | 261 | 3.5 | 13.0 | 0.00 | 0.00 | 0.00 | 75 | 1012.6 |
| 20260501210245 | 63 | 259 | 2.6 | 12.2 | 0.00 | 0.00 | 0.00 | 75 | 1012.6 |
| 20260501205739 | 63 | 241 | 1.7 | 9.6 | 0.00 | 0.00 | 0.00 | 75 | 1012.6 |
| 20260501205233 | 63 | 215 | 1.7 | 11.3 | 0.00 | 0.00 | 0.00 | 75 | 1012.6 |
| 20260501204727 | 62 | 265 | 2.6 | 11.3 | 0.00 | 0.00 | 0.00 | 75 | 1012.7 |
| 20260501204221 | 62 | 275 | 4.3 | 11.3 | 0.00 | 0.00 | 0.00 | 75 | 1012.7 |
| 20260501203715 | 62 | 246 | 2.6 | 11.3 | 0.00 | 0.00 | 0.00 | 74 | 1012.6 |
| 20260501203209 | 62 | 249 | 1.7 | 11.3 | 0.00 | 0.00 | 0.00 | 74 | 1012.7 |
| 20260501202703 | 62 | 235 | 1.7 | 10.4 | 0.00 | 0.00 | 0.00 | 74 | 1012.7 |
| 20260501202157 | 63 | 274 | 3.5 | 9.6 | 0.00 | 0.00 | 0.00 | 74 | 1012.7 |
| 20260501201651 | 63 | 264 | 2.6 | 10.4 | 0.00 | 0.00 | 0.00 | 73 | 1012.8 |
| 20260501201145 | 63 | 223 | 0.9 | 10.4 | 0.00 | 0.00 | 0.00 | 73 | 1012.7 |
| 20260501200639 | 63 | 228 | 1.7 | 8.7 | 0.00 | 0.00 | 0.00 | 73 | 1012.8 |
| 20260501200133 | 63 | 273 | 3.5 | 0.0 | 0.00 | 0.00 | 0.00 | 72 | 1012.7 |
| 20260501195627 | 63 | 276 | 2.6 | 0.0 | 0.00 | 0.00 | 0.00 | 72 | 1012.8 |
| 20260501195121 | 62 | 285 | 3.5 | 0.0 | 0.00 | 0.00 | 0.00 | 72 | 1012.9 |
| 20260501194615 | 62 | 286 | 1.7 | 0.0 | 0.00 | 0.00 | 0.00 | 71 | 1012.9 |
| 20260501194109 | 61 | 288 | 2.6 | 0.0 | 0.00 | 0.00 | 0.00 | 71 | 1012.9 |
| 20260501193603 | 62 | 293 | 0.9 | 0.0 | 0.00 | 0.00 | 0.00 | 71 | 1013.0 |
| 20260501193057 | 61 | 278 | 1.7 | 0.0 | 0.00 | 0.00 | 0.00 | 71 | 1013.0 |
| 20260501192551 | 61 | 285 | 0.9 | 0.0 | 0.00 | 0.00 | 0.00 | 70 | 1013.1 |
| 20260501192045 | 61 | 326 | 0.9 | 0.0 | 0.00 | 0.00 | 0.00 | 70 | 1013.1 |
| 20260501191539 | 60 | 347 | 0.9 | 0.0 | 0.00 | 0.00 | 0.00 | 70 | 1013.1 |
| 20260501191033 | 60 | 297 | 1.7 | 0.0 | 0.00 | 0.00 | 0.00 | 70 | 1013.1 |
| 20260501190527 | 60 | 309 | 0.9 | 0.0 | 0.00 | 0.00 | 0.00 | 69 | 1013.1 |
| 20260501190021 | 60 | 299 | 0.0 | 0.0 | 0.00 | 0.00 | 0.00 | 69 | 1013.2 |
| 20260501185515 | 59 | 353 | 0.9 | 0.0 | 0.00 | 0.00 | 0.00 | 69 | 1013.2 |
| 20260501185009 | 60 | 333 | 0.9 | 0.0 | 0.00 | 0.00 | 0.00 | 69 | 1013.3 |
| 20260501184503 | 59 | 355 | 0.9 | 0.0 | 0.00 | 0.00 | 0.00 | 68 | 1013.3 |
| 20260501183957 | 58 | 339 | 1.7 | 0.0 | 0.00 | 0.00 | 0.00 | 68 | 1013.4 |
| 20260501183451 | 58 | 345 | 0.9 | 0.0 | 0.00 | 0.00 | 0.00 | 68 | 1013.4 |
| 20260501182945 | 60 | 68 | 0.0 | 0.0 | 0.00 | 0.00 | 0.00 | 68 | 1013.4 |
| 20260501182439 | 59 | 45 | 0.9 | 0.0 | 0.00 | 0.00 | 0.00 | 67 | 1013.5 |
| 20260501181933 | 58 | 103 | 0.9 | 0.0 | 0.00 | 0.00 | 0.00 | 67 | 1013.6 |
| 20260501181427 | 57 | 86 | 0.9 | 0.0 | 0.00 | 0.00 | 0.00 | 67 | 1013.6 |
| 20260501180921 | 56 | 86 | 0.9 | 0.0 | 0.00 | 0.00 | 0.00 | 67 | 1013.7 |
| 20260501180415 | 56 | 101 | 1.7 | 0.0 | 0.00 | 0.00 | 0.00 | 66 | 1013.6 |
| 20260501175909 | 55 | 83 | 1.7 | 0.0 | 0.00 | 0.00 | 0.00 | 66 | 1013.7 |
| 20260501175403 | 56 | 105 | 0.9 | 0.0 | 0.00 | 0.00 | 0.00 | 66 | 1013.6 |
| 20260501174857 | 55 | 104 | 0.0 | 0.0 | 0.00 | 0.00 | 0.00 | 66 | 1013.6 |
| 20260501174351 | 55 | 120 | 0.0 | 0.0 | 0.00 | 0.00 | 0.00 | 66 | 1013.6 |
| 20260501173845 | 54 | 147 | 0.0 | 0.0 | 0.00 | 0.00 | 0.00 | 65 | 1013.6 |
| 20260501173339 | 54 | 145 | 0.0 | 0.0 | 0.00 | 0.00 | 0.00 | 65 | 1013.6 |